| time (UTC) | temp F | wind direction | speed MPH | gust MPH | rain 1hr in | rain 24hr in | rain mn in | humidity % | barometer mb |
| 20260507203004 | 64 | 146 | 0.0 | 3.0 | 0.00 | 0.00 | 0.00 | 53 | 1013.3 |
| 20260507201504 | 64 | 146 | 1.0 | 3.0 | 0.00 | 0.00 | 0.00 | 53 | 1013.1 |
| 20260507200005 | 65 | 146 | 1.0 | 5.0 | 0.00 | 0.00 | 0.00 | 52 | 1013.0 |
| 20260507194504 | 65 | 146 | 2.0 | 6.0 | 0.00 | 0.00 | 0.00 | 52 | 1012.7 |
| 20260507193004 | 66 | 135 | 1.0 | 5.0 | 0.00 | 0.00 | 0.00 | 52 | 1012.4 |
| 20260507191504 | 67 | 84 | 2.0 | 3.0 | 0.00 | 0.00 | 0.00 | 49 | 1012.5 |
| 20260507190005 | 68 | 84 | 1.0 | 3.0 | 0.00 | 0.00 | 0.00 | 47 | 1012.5 |
| 20260507184504 | 68 | 55 | 0.0 | 3.0 | 0.00 | 0.00 | 0.00 | 46 | 1012.6 |
| 20260507183004 | 68 | 55 | 0.0 | 7.0 | 0.00 | 0.00 | 0.00 | 45 | 1012.6 |
| 20260507174504 | 69 | 62 | 1.0 | 7.0 | 0.00 | 0.00 | 0.00 | 42 | 1012.3 |
| 20260507173005 | 70 | 81 | 3.0 | 8.0 | 0.00 | 0.00 | 0.00 | 40 | 1012.4 |
| 20260507171504 | 70 | 98 | 2.0 | 10.0 | 0.00 | 0.00 | 0.00 | 39 | 1012.3 |
| 20260507164504 | 71 | 68 | 4.0 | 12.0 | 0.00 | 0.00 | 0.00 | 42 | 1012.6 |
| 20260507163004 | 71 | 54 | 7.0 | 13.0 | 0.00 | 0.00 | 0.00 | 42 | 1012.4 |
| 20260507161504 | 70 | 46 | 7.0 | 16.0 | 0.00 | 0.00 | 0.00 | 44 | 1012.4 |
| 20260507160004 | 70 | 59 | 8.0 | 15.0 | 0.00 | 0.00 | 0.00 | 43 | 1012.3 |
| 20260507154504 | 71 | 74 | 9.0 | 15.0 | 0.00 | 0.00 | 0.00 | 39 | 1012.5 |
| 20260507153004 | 70 | 40 | 7.0 | 15.0 | 0.00 | 0.00 | 0.00 | 45 | 1012.6 |
| 20260507151504 | 71 | 17 | 5.0 | 14.0 | 0.00 | 0.00 | 0.00 | 45 | 1012.6 |
| 20260507144504 | 70 | 22 | 6.0 | 15.0 | 0.00 | 0.00 | 0.00 | 46 | 1012.8 |
| 20260507143004 | 70 | 341 | 6.0 | 16.0 | 0.00 | 0.00 | 0.00 | 47 | 1012.9 |
| 20260507141504 | 70 | 338 | 7.0 | 15.0 | 0.00 | 0.00 | 0.00 | 47 | 1012.9 |
| 20260507140005 | 71 | 341 | 5.0 | 13.0 | 0.00 | 0.00 | 0.00 | 46 | 1013.2 |
| 20260507134504 | 70 | 342 | 5.0 | 14.0 | 0.00 | 0.00 | 0.00 | 47 | 1013.3 |
| 20260507133004 | 69 | 9 | 6.0 | 16.0 | 0.00 | 0.00 | 0.00 | 46 | 1013.4 |
| 20260507130005 | 69 | 352 | 6.0 | 14.0 | 0.00 | 0.00 | 0.00 | 47 | 1013.9 |
| 20260507124504 | 69 | 2 | 6.0 | 13.0 | 0.00 | 0.00 | 0.00 | 43 | 1014.1 |
| 20260507121504 | 69 | 30 | 9.0 | 17.0 | 0.00 | 0.00 | 0.00 | 43 | 1014.2 |
| 20260507120005 | 68 | 33 | 6.0 | 17.0 | 0.00 | 0.00 | 0.00 | 44 | 1014.4 |
| 20260507114504 | 68 | 40 | 5.0 | 15.0 | 0.00 | 0.00 | 0.00 | 45 | 1014.5 |
| 20260507113005 | 68 | 24 | 6.0 | 14.0 | 0.00 | 0.00 | 0.00 | 45 | 1014.5 |
| 20260507111504 | 68 | 21 | 6.0 | 13.0 | 0.00 | 0.00 | 0.00 | 46 | 1014.7 |
| 20260507110004 | 66 | 326 | 6.0 | 12.0 | 0.00 | 0.00 | 0.00 | 50 | 1014.9 |
| 20260507104504 | 66 | 323 | 6.0 | 10.0 | 0.00 | 0.00 | 0.00 | 50 | 1015.1 |
| 20260507100005 | 64 | 343 | 3.0 | 9.0 | 0.00 | 0.00 | 0.00 | 49 | 1015.6 |
| 20260507094504 | 65 | 39 | 2.0 | 7.0 | 0.00 | 0.00 | 0.00 | 49 | 1015.8 |
| 20260507093004 | 64 | 304 | 1.0 | 6.0 | 0.00 | 0.00 | 0.00 | 49 | 1016.1 |
| 20260507091504 | 64 | 3 | 2.0 | 5.0 | 0.00 | 0.00 | 0.00 | 49 | 1016.1 |
| 20260507090005 | 63 | 57 | 3.0 | 7.0 | 0.00 | 0.00 | 0.00 | 50 | 1016.2 |
| 20260507084503 | 61 | 294 | 1.0 | 3.0 | 0.00 | 0.00 | 0.00 | 54 | 1016.2 |
| 20260507083005 | 59 | 157 | 1.0 | 3.0 | 0.00 | 0.00 | 0.00 | 55 | 1016.3 |
| 20260507080005 | 56 | 117 | 2.0 | 3.0 | 0.00 | 0.00 | 0.00 | 58 | 1016.5 |
| 20260507074504 | 55 | 116 | 2.0 | 3.0 | 0.00 | 0.00 | 0.00 | 60 | 1016.6 |
| 20260507073004 | 54 | 140 | 2.0 | 3.0 | 0.00 | 0.00 | 0.00 | 62 | 1016.7 |
| 20260507071504 | 52 | 155 | 2.0 | 5.0 | 0.00 | 0.00 | 0.00 | 65 | 1016.6 |
| 20260507070008 | 51 | 189 | 3.0 | 6.0 | 0.00 | 0.00 | 0.00 | 68 | 1016.8 |
| 20260507064504 | 50 | 139 | 2.0 | 6.0 | 0.00 | 0.00 | 0.00 | 69 | 1016.7 |
| 20260507063004 | 49 | 128 | 2.0 | 5.0 | 0.00 | 0.00 | 0.00 | 69 | 1016.8 |
| 20260507061504 | 48 | 150 | 1.0 | 5.0 | 0.00 | 0.00 | 0.00 | 70 | 1016.7 |
| 20260507060004 | 47 | 150 | 3.0 | 5.0 | 0.00 | 0.00 | 0.00 | 69 | 1016.8 |
| 20260507054504 | 47 | 150 | 3.0 | 6.0 | 0.00 | 0.00 | 0.00 | 69 | 1016.8 |
| 20260507053005 | 46 | 151 | 2.0 | 5.0 | 0.00 | 0.00 | 0.00 | 69 | 1016.8 |
| 20260507051504 | 46 | 151 | 2.0 | 6.0 | 0.00 | 0.00 | 0.00 | 69 | 1016.9 |
| 20260507050005 | 46 | 164 | 2.0 | 5.0 | 0.00 | 0.00 | 0.00 | 69 | 1016.9 |
| 20260507043004 | 46 | 152 | 2.0 | 5.0 | 0.00 | 0.00 | 0.00 | 69 | 1016.8 |
| 20260507041504 | 47 | 152 | 2.0 | 5.0 | 0.00 | 0.00 | 0.00 | 69 | 1016.8 |
| 20260507040004 | 47 | 153 | 2.0 | 5.0 | 0.00 | 0.00 | 0.00 | 69 | 1017.0 |
| 20260507034504 | 47 | 152 | 2.0 | 5.0 | 0.00 | 0.00 | 0.00 | 69 | 1017.0 |
| 20260507033004 | 47 | 148 | 2.0 | 6.0 | 0.00 | 0.00 | 0.00 | 69 | 1017.0 |
| 20260507031504 | 47 | 154 | 2.0 | 5.0 | 0.00 | 0.00 | 0.00 | 69 | 1017.0 |
| 20260507030005 | 47 | 168 | 3.0 | 7.0 | 0.00 | 0.00 | 0.00 | 69 | 1017.1 |
| 20260507024505 | 47 | 157 | 3.0 | 5.0 | 0.00 | 0.00 | 0.00 | 68 | 1016.9 |
| 20260507023004 | 48 | 167 | 2.0 | 5.0 | 0.00 | 0.00 | 0.00 | 68 | 1017.1 |
| 20260507021503 | 48 | 153 | 1.0 | 3.0 | 0.00 | 0.00 | 0.00 | 68 | 1017.2 |
| 20260507020004 | 48 | 153 | 1.0 | 3.0 | 0.00 | 0.00 | 0.00 | 68 | 1017.2 |
| 20260507014504 | 48 | 153 | 2.0 | 6.0 | 0.00 | 0.00 | 0.00 | 68 | 1017.3 |
| 20260507013004 | 49 | 163 | 3.0 | 5.0 | 0.00 | 0.00 | 0.00 | 68 | 1017.3 |
| 20260507010004 | 49 | 152 | 3.0 | 5.0 | 0.00 | 0.00 | 0.00 | 68 | 1017.4 |
| 20260507004504 | 49 | 152 | 2.0 | 5.0 | 0.00 | 0.00 | 0.00 | 68 | 1017.5 |
| 20260507003004 | 49 | 153 | 3.0 | 5.0 | 0.00 | 0.00 | 0.00 | 68 | 1017.7 |
| 20260507001504 | 49 | 152 | 2.0 | 6.0 | 0.00 | 0.00 | 0.00 | 67 | 1017.8 |
| 20260507000004 | 49 | 150 | 3.0 | 7.0 | 0.00 | 0.00 | 0.00 | 67 | 1017.9 |
| 20260506234504 | 50 | 148 | 2.0 | 6.0 | 0.00 | 0.00 | 0.00 | 67 | 1017.9 |
| 20260506231504 | 50 | 150 | 2.0 | 5.0 | 0.00 | 0.00 | 0.00 | 67 | 1018.2 |
| 20260506224504 | 50 | 162 | 3.0 | 3.0 | 0.00 | 0.00 | 0.00 | 66 | 1018.2 |
| 20260506214504 | 51 | 173 | 2.0 | 3.0 | 0.00 | 0.00 | 0.00 | 65 | 1018.4 |
| 20260506213004 | 52 | 173 | 1.0 | 3.0 | 0.00 | 0.00 | 0.00 | 65 | 1018.4 |
| 20260506211504 | 52 | 173 | 1.0 | 3.0 | 0.00 | 0.00 | 0.00 | 64 | 1018.4 |
| 20260506210004 | 52 | 173 | 3.0 | 3.0 | 0.00 | 0.00 | 0.00 | 64 | 1018.3 |